Regional Weather Roundup
Issued by NWS Sioux Falls, SD

Home | Current Version | Previous Version | Text Only | Print | Product List | Glossary On
Versions: 1 2 3 4 5 6 7 8 9 10 11 12 13 14 15 16 17 18 19 20 21 22 23 24 25 26 27 28 29 30 31 32 33 34 35 36 37 38 39 40 41 42 43 44 45 46 47 48 49 50
000
ASUS43 KFSD 280202
RWRFSD

WEATHER ROUNDUP FOR SE SOUTH DAKOTA/SW MINNESOTA/NW IOWA
NATIONAL WEATHER SERVICE SIOUX FALLS SD
900 PM CDT SAT MAY 27 2017

NOTE: "FAIR" INDICATES FEW OR NO CLOUDS BELOW 12,000 FEET WITH NO
SIGNIFICANT WEATHER AND OR OBSTRUCTIONS TO VISIBILITY.


SDZ038>040-050-052>070-280300-
SOUTHEAST SOUTH DAKOTA

CITY           SKY/WX    TMP DP  RH WIND       PRES   REMARKS
BROOKINGS      PTCLDY    61  48  62 SW8       29.88F
CHAMBERLAIN    PTCLDY    66  49  55 SW6       29.90S
HURON          PTCLDY    65  45  48 S8        29.85S
MADISON        FAIR      63  46  55 SW5       29.91S
MITCHELL       CLEAR     65  49  56 S8        29.90S
SIOUX FALLS    CLOUDY    63  53  70 SW3       29.91S
WINNER         FAIR      64  49  57 SW9       29.93R
YANKTON        PTCLDY    60  53  77 W8        29.94R
$$

MNZ071-072-080-081-089-090-097-098-280300-
SOUTHWEST MINNESOTA

CITY           SKY/WX    TMP DP  RH WIND       PRES   REMARKS
FAIRMONT       CLOUDY    67  46  47 W5        29.88F
JACKSON        CLOUDY    63  48  59 W8        29.91S
LUVERNE        CLOUDY    61  48  63 SW6       29.92S
MARSHALL       CLOUDY    65  48  54 W10       29.87F
MONTEVIDEO     PTCLDY    66  43  42 W7        29.84S
PIPESTONE      CLOUDY    63  45  51 W6        29.91S
REDWOOD FALLS  CLOUDY    68  45  43 W8        29.85F
TRACY          CLOUDY    65  53  63 SW5       29.88F
WINDOM         CLOUDY    64  48  55 SW5       29.89F
WORTHINGTON    LGT RAIN  63  51  65 W7        29.91F
$$

IAZ001>003-012>014-020>022-031-032-NEZ013-014-SDZ071-280300-
NORTHWEST IOWA

CITY           SKY/WX    TMP DP  RH WIND       PRES   REMARKS
CHEROKEE       MOCLDY    64  51  64 NW6       29.91S
DENISON        CLOUDY    63  52  67 W5        29.91S
ESTHERVILLE    CLOUDY    63  52  67 W5        29.88F
LE MARS        CLOUDY    63  52  67 W7        29.94R
ORANGE CITY    LGT RAIN  61  55  82 W6        29.93S
SHELDON        CLOUDY    63  55  77 W9        29.91S
SIOUX CITY     LGT RAIN  64  52  64 NW9       29.92R
SPENCER        LGT RAIN  63  55  75 W8        29.90S
STORM LAKE     CLEAR     64  50  59 NW8       29.90F
$$

ABBREVIATIONS USED IN REMARKS
   TC - TEMPERATURE IN CELSIUS
  WCI - WIND CHILL INDEX
   HX - HEAT INDEX
  VSB - VISIBILITY





USA.gov is the U.S. government's official web portal to all federal, state and local government web resources and services.